Location: Unspecified
(0.0000°N, 0.0000°E)
Time: 11:04:06
(UTC+01:00)

Cosmos 1733 Rocket - Visible Passes

Search period start: 31 January 2015 00:00
Search period end: 10 February 2015 00:00
Orbit: 604 x 631 km, 82.5° (Epoch: 28 January)

Date Brightness Start Highest point End Pass type
(mag) Time Alt. Az. Time Alt. Az. Time Alt. Az.
31 Jan 3.4 06:08:57 10° N 06:13:14 66° E 06:17:32 10° SSE visible
01 Feb 3.2 06:25:46 10° NNW 06:29:58 51° W 06:34:12 10° S visible
02 Feb 6.0 05:07:14 10° ENE 05:09:01 13° E 05:11:06 10° ESE visible
02 Feb 4.2 06:43:17 10° NW 06:46:45 23° W 06:50:07 10° SW visible
03 Feb 5.0 05:22:09 10° NNE 05:25:50 28° E 05:29:38 10° SE visible
04 Feb 3.3 05:39:36 19° N 05:42:35 66° E 05:46:56 10° SSE visible
05 Feb 3.1 05:57:34 31° NW 05:59:20 52° W 06:03:35 10° S visible
06 Feb 6.0 04:38:16 13° E 04:38:23 13° E 04:40:30 10° ESE visible
06 Feb 4.1 06:15:27 22° W 06:16:07 23° W 06:19:30 10° SSW visible
07 Feb 5.1 04:56:05 26° ESE 04:56:05 26° ESE 04:59:00 10° SE visible
08 Feb 4.5 05:13:50 32° SSE 05:13:50 32° SSE 05:16:19 10° SSE visible
09 Feb 4.9 05:31:30 20° SSW 05:31:30 20° SSW 05:32:57 10° S visible
